Flag for U.S.A. Weather past 2 weeks in Decatur, Illinois, U.S.A.

Now
69 °F

Sunny.


Feels Like: 69 °F
Forecast: 58 / 73 °F
Wind: 13 mph from North

Location: Decatur Airport

Current Time: Jul 28, 2014 at 11:03:40 AM

Latest Report: Jul 28, 2014 at 9:54 AM


Visibility: 10 mi

Pressure: 30.07 "Hg

Humidity: 63%

Dew point: 56 °F

Location of DecaturLocation

Historic Weather in Decatur — Graph

°F

Decatur temperature yesterday

Maximum temperature yesterday: 86 °F (at 12:54 PM)
Minimum temperature yesterday: 69 °F (at 11:54 PM)
Average temperature yesterday: 77 °F

Past Weeks' High & Low Weather Summary

 TemperatureHumidityPressure
High86 °F (Jul 27, 12:54 PM)100% (Jul 24, 7:54 AM)30.16 "Hg (Jul 24, 7:54 AM)
Low53 °F (Jul 19, 5:54 AM)42% (Jul 16, 3:54 PM)29.77 "Hg (Jul 27, 4:54 AM)
Average70 °F74%30.01 "Hg
* Reported Jul 13 9:54 AM — Jul 28 9:54 AM, Decatur, Weather by CustomWeather, © 2014

Note: Actual official high and low records may vary slightly from our data, if they occured in-between our weather recording intervals... More about our weather records

Advertising

Decatur weather history for previous 24 hours

 ConditionsComfort  
Time TempWeatherWind HumidityBarometerVisibility
9:54 AM
Jul 28
69 °FSunny.13 mph63%30.07 "Hg10 mi
8:54 AM66 °FSunny.15 mph68%30.05 "Hg10 mi
7:54 AM64 °FSunny.14 mph75%30.03 "Hg10 mi
6:54 AM63 °FSunny.9 mph81%30.02 "Hg10 mi
5:54 AM63 °FPassing clouds.9 mph90%30.00 "Hg10 mi
4:54 AM63 °FClear.9 mph90%29.98 "Hg10 mi
3:54 AM65 °FClear.10 mph85%29.96 "Hg10 mi
2:54 AM65 °FClear.9 mph85%29.94 "Hg10 mi
1:54 AM65 °FClear.10 mph85%29.93 "Hg10 mi
12:54 AM67 °FClear.14 mph76%29.92 "Hg10 mi
11:54 PM
Jul 27
69 °FClear.12 mph70%29.92 "Hg10 mi
10:54 PM70 °FClear.17 mph68%29.92 "Hg10 mi
9:54 PM71 °FClear.10 mph66%29.93 "Hg10 mi
8:54 PM73 °FSunny.14 mph59%29.91 "Hg10 mi
7:54 PM75 °FSunny.12 mph54%29.89 "Hg10 mi
6:54 PM78 °FSunny.17 mph48%29.88 "Hg10 mi
5:54 PM79 °FPartly sunny.20 mph52%29.85 "Hg10 mi
4:54 PM83 °FPassing clouds.21 mph44%29.82 "Hg10 mi
3:54 PM84 °FSunny.17 mph43%29.81 "Hg10 mi
2:54 PM85 °FSunny.21 mph48%29.81 "Hg10 mi
1:54 PM86 °FPassing clouds.24 mph55%29.81 "Hg10 mi
12:54 PM86 °FBroken clouds.17 mph59%29.82 "Hg10 mi
11:54 AM85 °FScattered clouds.14 mph65%29.82 "Hg10 mi
Weather by CustomWeather, © 2014

See weather overviewHow to use our weather pages